Time,TemperatureF,DewpointF,PressureIn,WindDirection,WindDirectionDegrees,WindSpeedMPH,WindSpeedGustMPH,Humidity,HourlyPrecipIn,Conditions,Clouds,dailyrainin,SoftwareType,DateUTC
2013-03-08 00:00:00,46.2,38.4,29.82,NNW,338,0.0,0.0,74,0.00,,CLR,0.00,VWS V13.01,2013-03-08 08:00:00,
2013-03-08 00:15:00,45.7,37.9,29.82,NNW,338,0.0,0.0,74,0.00,,CLR,0.00,VWS V13.01,2013-03-08 08:15:00,
2013-03-08 00:30:00,45.0,37.2,29.82,NNW,338,0.0,0.0,74,0.00,,CLR,0.00,VWS V13.01,2013-03-08 08:30:00,
2013-03-08 00:45:00,44.2,37.1,29.81,NNW,338,0.0,0.0,76,0.00,,CLR,0.00,VWS V13.01,2013-03-08 08:45:00,
2013-03-08 01:00:00,43.4,36.7,29.81,NNW,338,0.0,0.0,77,0.00,,CLR,0.00,VWS V13.01,2013-03-08 09:00:00,
2013-03-08 01:15:00,42.6,36.2,29.82,NNW,338,0.0,0.0,78,0.00,,CLR,0.00,VWS V13.01,2013-03-08 09:15:00,
2013-03-08 01:30:00,41.9,35.9,29.81,NNW,338,0.0,0.0,79,0.00,,CLR,0.00,VWS V13.01,2013-03-08 09:30:00,
2013-03-08 01:45:00,41.3,35.6,29.81,NNW,338,0.0,0.0,80,0.00,,CLR,0.00,VWS V13.01,2013-03-08 09:45:00,
2013-03-08 02:00:00,40.9,36.1,29.81,NNW,338,2.0,7.0,83,0.00,,CLR,0.00,VWS V13.01,2013-03-08 10:00:00,
2013-03-08 02:15:00,40.8,36.0,29.81,NNW,338,0.0,0.0,83,0.00,,CLR,0.00,VWS V13.01,2013-03-08 10:15:00,
2013-03-08 02:30:00,40.4,35.7,29.80,NNW,338,0.0,5.0,83,0.00,,CLR,0.00,VWS V13.01,2013-03-08 10:30:00,
2013-03-08 02:45:00,40.5,36.0,29.80,NNW,338,5.0,8.0,84,0.00,,CLR,0.00,VWS V13.01,2013-03-08 10:45:00,
2013-03-08 03:00:00,40.9,35.8,29.79,NNW,338,6.0,9.0,82,0.00,,CLR,0.00,VWS V13.01,2013-03-08 11:00:00,
2013-03-08 03:15:00,40.9,35.5,29.79,NW,315,5.0,8.0,81,0.00,,CLR,0.00,VWS V13.01,2013-03-08 11:15:00,
2013-03-08 03:30:00,41.1,35.4,29.79,NNW,338,7.0,12.0,80,0.00,,CLR,0.00,VWS V13.01,2013-03-08 11:30:00,
2013-03-08 03:45:00,41.4,35.4,29.78,NNW,338,5.0,10.0,79,0.00,,CLR,0.00,VWS V13.01,2013-03-08 11:45:00,
2013-03-08 04:00:00,41.7,35.0,29.78,NNW,338,7.0,11.0,77,0.00,,CLR,0.00,VWS V13.01,2013-03-08 12:00:00,
2013-03-08 04:15:00,41.8,34.8,29.79,NNW,338,4.0,10.0,76,0.00,,CLR,0.00,VWS V13.01,2013-03-08 12:15:00,
2013-03-08 04:30:00,41.7,34.4,29.78,NNW,338,3.0,7.0,75,0.00,,CLR,0.00,VWS V13.01,2013-03-08 12:30:00,
2013-03-08 04:45:00,41.7,34.0,29.78,NNW,338,5.0,8.0,74,0.00,,CLR,0.00,VWS V13.01,2013-03-08 12:45:00,
2013-03-08 05:00:00,41.7,34.0,29.79,NNW,338,5.0,9.0,74,0.00,,CLR,0.00,VWS V13.01,2013-03-08 13:00:00,
2013-03-08 05:15:00,42.0,34.0,29.79,NNW,338,8.0,13.0,73,0.00,,CLR,0.00,VWS V13.01,2013-03-08 13:15:00,
2013-03-08 05:30:00,42.3,33.9,29.78,NW,315,8.0,12.0,72,0.00,,CLR,0.00,VWS V13.01,2013-03-08 13:30:00,
2013-03-08 05:45:00,42.1,34.1,29.78,NW,315,8.0,13.0,73,0.00,,CLR,0.00,VWS V13.01,2013-03-08 13:45:00,
2013-03-08 06:00:00,41.9,33.9,29.79,NNW,338,8.0,15.0,73,0.00,,CLR,0.00,VWS V13.01,2013-03-08 14:00:00,
2013-03-08 06:15:00,42.3,33.9,29.79,NNW,338,9.0,14.0,72,0.00,,CLR,0.00,VWS V13.01,2013-03-08 14:15:00,
2013-03-08 06:30:00,42.9,33.8,29.79,NNW,338,10.0,17.0,70,0.00,,CLR,0.00,VWS V13.01,2013-03-08 14:30:00,
2013-03-08 06:45:00,43.2,34.1,29.79,NNW,338,10.0,16.0,70,0.00,,CLR,0.00,VWS V13.01,2013-03-08 14:45:00,
2013-03-08 07:00:00,43.6,34.5,29.80,NNW,338,9.0,14.0,70,0.00,,CLR,0.00,VWS V13.01,2013-03-08 15:00:00,
2013-03-08 07:15:00,44.3,35.2,29.80,North,0,7.0,15.0,70,0.00,,CLR,0.00,VWS V13.01,2013-03-08 15:15:00,
2013-03-08 07:30:00,45.9,35.6,29.80,NNW,338,8.0,15.0,67,0.00,,CLR,0.00,VWS V13.01,2013-03-08 15:30:00,
2013-03-08 07:45:00,47.7,35.3,29.80,NNW,338,10.0,17.0,62,0.00,,CLR,0.00,VWS V13.01,2013-03-08 15:45:00,
2013-03-08 08:00:00,49.5,36.2,29.80,NNW,338,10.0,16.0,60,0.00,,CLR,0.00,VWS V13.01,2013-03-08 16:00:00,
2013-03-08 08:15:00,51.1,36.0,29.80,NNW,338,13.0,18.0,56,0.00,,CLR,0.00,VWS V13.01,2013-03-08 16:15:00,
2013-03-08 08:30:00,52.2,36.1,29.80,NNW,338,12.0,21.0,54,0.00,,CLR,0.00,VWS V13.01,2013-03-08 16:30:00,
2013-03-08 08:45:00,53.7,36.0,29.80,NNW,338,11.0,17.0,51,0.00,,CLR,0.00,VWS V13.01,2013-03-08 16:45:00,
2013-03-08 09:00:00,55.0,36.2,29.81,NNW,338,11.0,19.0,49,0.00,,CLR,0.00,VWS V13.01,2013-03-08 17:00:00,
2013-03-08 09:15:00,56.0,35.5,29.81,NNW,338,14.0,23.0,46,0.00,,CLR,0.00,VWS V13.01,2013-03-08 17:15:00,
2013-03-08 09:30:00,57.0,34.8,29.81,NNW,338,14.0,24.0,43,0.00,,CLR,0.00,VWS V13.01,2013-03-08 17:30:00,
2013-03-08 09:45:00,58.0,35.1,29.81,NNW,338,14.0,24.0,42,0.00,,CLR,0.00,VWS V13.01,2013-03-08 17:45:00,
2013-03-08 10:08:00,58.1,36.3,29.80,NNW,338,13.0,21.0,44,0.00,,CLR,0.00,VWS V13.01,2013-03-08 18:08:00,
2013-03-08 10:14:00,58.5,36.7,29.81,NW,324,10.0,20.0,44,0.00,,CLR,0.00,VWS V13.01,2013-03-08 18:14:00,
2013-03-08 10:20:00,59.1,36.0,29.81,NW,311,20.0,22.0,42,0.00,,CLR,0.00,VWS V13.01,2013-03-08 18:20:00,
2013-03-08 10:25:00,59.5,35.2,29.80,NNW,341,16.0,31.0,40,0.00,,CLR,0.00,VWS V13.01,2013-03-08 18:25:00,
2013-03-08 10:31:00,60.1,35.7,29.80,NNW,338,20.0,31.0,40,0.00,,CLR,0.00,VWS V13.01,2013-03-08 18:31:00,
2013-03-08 10:37:00,60.6,35.5,29.80,NNW,338,18.0,23.0,39,0.00,,CLR,0.00,VWS V13.01,2013-03-08 18:37:00,
2013-03-08 10:43:00,60.8,35.7,29.80,NNW,343,23.0,23.0,39,0.00,,CLR,0.00,VWS V13.01,2013-03-08 18:43:00,
2013-03-08 10:49:00,60.6,36.2,29.80,NNW,339,13.0,23.0,40,0.00,,CLR,0.00,VWS V13.01,2013-03-08 18:49:00,
2013-03-08 10:55:00,60.4,34.7,29.80,NNW,339,12.0,23.0,38,0.00,,CLR,0.00,VWS V13.01,2013-03-08 18:55:00,
2013-03-08 11:01:00,60.3,35.3,29.80,NNW,342,12.0,23.0,39,0.00,,CLR,0.00,VWS V13.01,2013-03-08 19:01:00,
2013-03-08 11:07:00,60.0,35.0,29.79,NNW,348,14.0,24.0,39,0.00,,CLR,0.00,VWS V13.01,2013-03-08 19:07:00,
2013-03-08 11:13:00,60.1,35.7,29.79,NNW,331,20.0,24.0,40,0.00,,CLR,0.00,VWS V13.01,2013-03-08 19:13:00,
2013-03-08 11:19:00,60.0,35.6,29.80,NW,326,17.0,24.0,40,0.00,,CLR,0.00,VWS V13.01,2013-03-08 19:19:00,
2013-03-08 11:25:00,60.3,35.9,29.79,NNW,334,10.0,25.0,40,0.00,,CLR,0.00,VWS V13.01,2013-03-08 19:25:00,
2013-03-08 11:31:00,61.0,37.2,29.79,North,355,12.0,25.0,41,0.00,,CLR,0.00,VWS V13.01,2013-03-08 19:31:00,
2013-03-08 11:37:00,61.7,37.2,29.79,NNW,348,12.0,18.0,40,0.00,,CLR,0.00,VWS V13.01,2013-03-08 19:37:00,
2013-03-08 11:43:00,62.4,37.1,29.79,North,360,8.0,21.0,39,0.00,,CLR,0.00,VWS V13.01,2013-03-08 19:43:00,
2013-03-08 11:50:00,62.8,36.2,29.79,NW,324,9.0,25.0,37,0.00,,CLR,0.00,VWS V13.01,2013-03-08 19:50:00,
2013-03-08 11:56:00,62.7,36.1,29.79,NW,305,12.0,21.0,37,0.00,,CLR,0.00,VWS V13.01,2013-03-08 19:56:00,
2013-03-08 12:02:00,62.8,36.8,29.79,NNW,340,13.0,21.0,38,0.00,,CLR,0.00,VWS V13.01,2013-03-08 20:02:00,
2013-03-08 12:08:00,63.2,37.9,29.78,NNW,338,15.0,17.0,39,0.00,,CLR,0.00,VWS V13.01,2013-03-08 20:08:00,
2013-03-08 12:14:00,64.2,37.4,29.78,North,355,17.0,19.0,37,0.00,,CLR,0.00,VWS V13.01,2013-03-08 20:14:00,
2013-03-08 12:20:00,64.9,37.3,29.78,NNW,342,9.0,21.0,36,0.00,,CLR,0.00,VWS V13.01,2013-03-08 20:20:00,
2013-03-08 12:26:00,65.7,37.3,29.79,NNW,338,12.0,23.0,35,0.00,,CLR,0.00,VWS V13.01,2013-03-08 20:26:00,
2013-03-08 12:32:00,66.3,38.6,29.78,NNW,348,12.0,23.0,36,0.00,,CLR,0.00,VWS V13.01,2013-03-08 20:32:00,
2013-03-08 12:37:00,66.6,36.6,29.78,NW,315,11.0,22.0,33,0.00,,CLR,0.00,VWS V13.01,2013-03-08 20:37:00,
2013-03-08 12:43:00,66.4,35.7,29.78,NW,316,14.0,24.0,32,0.00,,CLR,0.00,VWS V13.01,2013-03-08 20:43:00,
2013-03-08 12:49:00,66.5,36.5,29.77,NW,311,13.0,24.0,33,0.00,,CLR,0.00,VWS V13.01,2013-03-08 20:49:00,
2013-03-08 12:55:00,66.7,35.9,29.77,NNW,333,12.0,21.0,32,0.00,,CLR,0.00,VWS V13.01,2013-03-08 20:55:00,
2013-03-08 13:01:00,66.9,36.1,29.77,WNW,302,15.0,24.0,32,0.00,,CLR,0.00,VWS V13.01,2013-03-08 21:01:00,
2013-03-08 13:08:00,67.0,36.2,29.77,NW,309,18.0,19.0,32,0.00,,CLR,0.00,VWS V13.01,2013-03-08 21:08:00,
2013-03-08 13:14:00,67.4,35.7,29.77,NW,322,20.0,21.0,31,0.00,,CLR,0.00,VWS V13.01,2013-03-08 21:14:00,
2013-03-08 13:20:00,67.6,34.2,29.76,NW,313,14.0,22.0,29,0.00,,CLR,0.00,VWS V13.01,2013-03-08 21:20:00,
2013-03-08 13:26:00,67.8,34.4,29.76,NW,313,6.0,22.0,29,0.00,,CLR,0.00,VWS V13.01,2013-03-08 21:26:00,
2013-03-08 13:32:00,68.1,34.7,29.76,NW,315,12.0,22.0,29,0.00,,CLR,0.00,VWS V13.01,2013-03-08 21:32:00,
2013-03-08 13:38:00,68.5,35.0,29.76,NNW,331,10.0,18.0,29,0.00,,CLR,0.00,VWS V13.01,2013-03-08 21:38:00,
2013-03-08 13:44:00,68.8,34.4,29.76,WNW,300,12.0,24.0,28,0.00,,CLR,0.00,VWS V13.01,2013-03-08 21:44:00,
2013-03-08 13:50:00,69.1,34.7,29.76,NNW,346,12.0,24.0,28,0.00,,CLR,0.00,VWS V13.01,2013-03-08 21:50:00,
2013-03-08 13:55:00,69.5,34.1,29.76,NNW,342,8.0,21.0,27,0.00,,CLR,0.00,VWS V13.01,2013-03-08 21:55:00,
2013-03-08 14:01:00,69.9,33.5,29.76,NW,318,13.0,21.0,26,0.00,,CLR,0.00,VWS V13.01,2013-03-08 22:01:00,
2013-03-08 14:07:00,70.1,32.7,29.76,NW,316,12.0,21.0,25,0.00,,CLR,0.00,VWS V13.01,2013-03-08 22:07:00,
2013-03-08 14:13:00,70.3,32.8,29.76,NNW,344,11.0,21.0,25,0.00,,CLR,0.00,VWS V13.01,2013-03-08 22:13:00,
2013-03-08 14:19:00,70.5,33.0,29.76,NW,312,18.0,21.0,25,0.00,,CLR,0.00,VWS V13.01,2013-03-08 22:19:00,
2013-03-08 14:25:00,70.5,33.0,29.75,WNW,292,6.0,15.0,25,0.00,,CLR,0.00,VWS V13.01,2013-03-08 22:25:00,
2013-03-08 14:31:00,70.5,31.0,29.76,North,355,8.0,20.0,23,0.00,,CLR,0.00,VWS V13.01,2013-03-08 22:31:00,
2013-03-08 14:37:00,70.5,31.0,29.76,NW,315,8.0,20.0,23,0.00,,CLR,0.00,VWS V13.01,2013-03-08 22:37:00,
2013-03-08 14:43:00,70.7,34.2,29.75,NW,326,14.0,20.0,26,0.00,,CLR,0.00,VWS V13.01,2013-03-08 22:43:00,
2013-03-08 14:49:00,71.1,30.4,29.75,NW,309,9.0,20.0,22,0.00,,CLR,0.00,VWS V13.01,2013-03-08 22:49:00,
2013-03-08 14:55:00,71.0,29.1,29.75,NNW,330,12.0,19.0,21,0.00,,CLR,0.00,VWS V13.01,2013-03-08 22:55:00,
2013-03-08 15:01:00,70.7,31.1,29.75,NNW,348,7.0,19.0,23,0.00,,CLR,0.00,VWS V13.01,2013-03-08 23:01:00,
2013-03-08 15:07:00,70.7,30.0,29.75,NNW,337,8.0,15.0,22,0.00,,CLR,0.00,VWS V13.01,2013-03-08 23:07:00,
2013-03-08 15:14:00,70.8,30.1,29.75,NNW,328,12.0,17.0,22,0.00,,CLR,0.00,VWS V13.01,2013-03-08 23:14:00,
2013-03-08 15:20:00,70.7,31.1,29.75,NW,325,11.0,21.0,23,0.00,,CLR,0.00,VWS V13.01,2013-03-08 23:20:00,
2013-03-08 15:26:00,70.5,31.0,29.75,NNW,327,5.0,17.0,23,0.00,,CLR,0.00,VWS V13.01,2013-03-08 23:26:00,
2013-03-08 15:32:00,70.5,28.7,29.75,NW,321,7.0,17.0,21,0.00,,CLR,0.00,VWS V13.01,2013-03-08 23:32:00,
2013-03-08 15:38:00,70.5,28.7,29.76,NNW,348,11.0,17.0,21,0.00,,CLR,0.00,VWS V13.01,2013-03-08 23:38:00,
2013-03-08 15:44:00,70.6,28.8,29.76,NW,313,9.0,17.0,21,0.00,,CLR,0.00,VWS V13.01,2013-03-08 23:44:00,
2013-03-08 15:50:00,70.4,29.8,29.76,NW,326,13.0,19.0,22,0.00,,CLR,0.00,VWS V13.01,2013-03-08 23:50:00,
2013-03-08 15:56:00,70.4,28.6,29.75,NNW,337,10.0,14.0,21,0.00,,CLR,0.00,VWS V13.01,2013-03-08 23:56:00,
2013-03-08 16:02:00,70.2,30.7,29.75,NNW,344,6.0,14.0,23,0.00,,CLR,0.00,VWS V13.01,2013-03-09 00:02:00,
2013-03-08 16:08:00,69.8,28.1,29.75,NNW,333,5.0,15.0,21,0.00,,CLR,0.00,VWS V13.01,2013-03-09 00:08:00,
2013-03-08 16:14:00,69.4,28.9,29.75,NNW,339,4.0,15.0,22,0.00,,CLR,0.00,VWS V13.01,2013-03-09 00:14:00,
2013-03-08 16:20:00,69.1,29.8,29.75,NNW,336,9.0,15.0,23,0.00,,CLR,0.00,VWS V13.01,2013-03-09 00:20:00,
2013-03-08 16:25:00,68.9,29.6,29.75,NNW,342,6.0,12.0,23,0.00,,CLR,0.00,VWS V13.01,2013-03-09 00:25:00,
2013-03-08 16:31:00,68.7,30.5,29.75,NNW,339,5.0,12.0,24,0.00,,CLR,0.00,VWS V13.01,2013-03-09 00:31:00,
2013-03-08 16:37:00,68.6,31.4,29.76,NNW,336,6.0,9.0,25,0.00,,CLR,0.00,VWS V13.01,2013-03-09 00:37:00,
2013-03-08 16:43:00,68.4,31.2,29.76,North,360,5.0,12.0,25,0.00,,CLR,0.00,VWS V13.01,2013-03-09 00:43:00,
2013-03-08 16:49:00,68.2,31.1,29.76,NW,309,0.0,12.0,25,0.00,,CLR,0.00,VWS V13.01,2013-03-09 00:49:00,
2013-03-08 16:55:00,68.0,30.9,29.76,North,349,0.0,8.0,25,0.00,,CLR,0.00,VWS V13.01,2013-03-09 00:55:00,
2013-03-08 17:01:00,67.7,30.6,29.76,NNW,336,6.0,8.0,25,0.00,,CLR,0.00,VWS V13.01,2013-03-09 01:01:00,
2013-03-08 17:07:00,67.4,32.3,29.76,NNW,329,5.0,8.0,27,0.00,,CLR,0.00,VWS V13.01,2013-03-09 01:07:00,
2013-03-08 17:14:00,67.1,31.1,29.77,NNW,329,2.0,8.0,26,0.00,,CLR,0.00,VWS V13.01,2013-03-09 01:14:00,
2013-03-08 17:20:00,66.8,31.8,29.77,NNW,327,0.0,8.0,27,0.00,,CLR,0.00,VWS V13.01,2013-03-09 01:20:00,
2013-03-08 17:26:00,66.5,30.6,29.77,NNW,327,0.0,5.0,26,0.00,,CLR,0.00,VWS V13.01,2013-03-09 01:26:00,
2013-03-08 17:32:00,66.1,32.1,29.77,NNW,327,0.0,5.0,28,0.00,,CLR,0.00,VWS V13.01,2013-03-09 01:32:00,
2013-03-08 17:38:00,65.7,34.3,29.77,NNW,327,0.0,0.0,31,0.00,,CLR,0.00,VWS V13.01,2013-03-09 01:38:00,
2013-03-08 17:44:00,65.2,36.2,29.78,WNW,302,2.0,6.0,34,0.00,,CLR,0.00,VWS V13.01,2013-03-09 01:44:00,
2013-03-08 17:49:00,64.4,36.9,29.78,WSW,238,3.0,7.0,36,0.00,,CLR,0.00,VWS V13.01,2013-03-09 01:49:00,
2013-03-08 17:55:00,63.3,38.6,29.79,SW,236,6.0,6.0,40,0.00,,CLR,0.00,VWS V13.01,2013-03-09 01:55:00,
2013-03-08 18:01:00,61.7,38.4,29.79,WSW,243,1.0,10.0,42,0.00,,CLR,0.00,VWS V13.01,2013-03-09 02:01:00,
2013-03-08 18:08:00,60.5,39.1,29.79,WSW,256,3.0,7.0,45,0.00,,CLR,0.00,VWS V13.01,2013-03-09 02:08:00,
2013-03-08 18:14:00,59.6,38.2,29.80,West,261,4.0,8.0,45,0.00,,CLR,0.00,VWS V13.01,2013-03-09 02:14:00,
2013-03-08 18:20:00,59.1,37.8,29.80,West,272,6.0,10.0,45,0.00,,CLR,0.00,VWS V13.01,2013-03-09 02:20:00,
2013-03-08 18:26:00,59.0,38.8,29.81,West,266,6.0,8.0,47,0.00,,CLR,0.00,VWS V13.01,2013-03-09 02:26:00,
2013-03-08 18:32:00,58.5,39.4,29.81,WSW,252,1.0,8.0,49,0.00,,CLR,0.00,VWS V13.01,2013-03-09 02:32:00,
2013-03-08 18:38:00,57.8,39.3,29.82,WSW,252,4.0,5.0,50,0.00,,CLR,0.00,VWS V13.01,2013-03-09 02:38:00,
2013-03-08 18:44:00,57.0,39.6,29.82,WSW,252,2.0,5.0,52,0.00,,CLR,0.00,VWS V13.01,2013-03-09 02:44:00,
2013-03-08 18:50:00,56.1,39.2,29.82,WSW,249,5.0,6.0,53,0.00,,CLR,0.00,VWS V13.01,2013-03-09 02:50:00,
2013-03-08 18:56:00,55.4,39.0,29.82,WSW,250,4.0,7.0,54,0.00,,CLR,0.00,VWS V13.01,2013-03-09 02:56:00,
2013-03-08 19:02:00,54.8,39.0,29.83,WSW,248,0.0,7.0,55,0.00,,CLR,0.00,VWS V13.01,2013-03-09 03:02:00,
2013-03-08 19:08:00,54.4,38.6,29.83,WSW,256,0.0,5.0,55,0.00,,CLR,0.00,VWS V13.01,2013-03-09 03:08:00,
2013-03-08 19:14:00,54.1,38.8,29.83,WSW,258,0.0,5.0,56,0.00,,CLR,0.00,VWS V13.01,2013-03-09 03:14:00,
2013-03-08 19:20:00,53.9,38.6,29.84,West,269,1.0,5.0,56,0.00,,CLR,0.00,VWS V13.01,2013-03-09 03:20:00,
2013-03-08 19:25:00,53.8,38.9,29.84,West,271,0.0,6.0,57,0.00,,CLR,0.00,VWS V13.01,2013-03-09 03:25:00,
2013-03-08 19:31:00,53.9,39.0,29.84,West,273,0.0,6.0,57,0.00,,CLR,0.00,VWS V13.01,2013-03-09 03:31:00,
2013-03-08 19:37:00,53.9,38.6,29.84,West,278,4.0,6.0,56,0.00,,CLR,0.00,VWS V13.01,2013-03-09 03:37:00,
2013-03-08 19:43:00,54.0,38.7,29.84,West,279,0.0,7.0,56,0.00,,CLR,0.00,VWS V13.01,2013-03-09 03:43:00,
2013-03-08 19:49:00,53.9,39.0,29.84,West,279,4.0,7.0,57,0.00,,CLR,0.00,VWS V13.01,2013-03-09 03:49:00,
2013-03-08 19:55:00,53.6,39.6,29.84,West,272,2.0,7.0,59,0.00,,CLR,0.00,VWS V13.01,2013-03-09 03:55:00,
2013-03-08 20:01:00,53.2,39.7,29.85,West,270,2.0,7.0,60,0.00,,CLR,0.00,VWS V13.01,2013-03-09 04:01:00,
2013-03-08 20:07:00,52.4,39.4,29.85,WSW,256,3.0,4.0,61,0.00,,CLR,0.00,VWS V13.01,2013-03-09 04:07:00,
2013-03-08 20:13:00,51.6,39.0,29.85,WSW,252,5.0,5.0,62,0.00,,CLR,0.00,VWS V13.01,2013-03-09 04:13:00,
2013-03-08 20:19:00,50.9,38.8,29.85,WSW,252,0.0,5.0,63,0.00,,CLR,0.00,VWS V13.01,2013-03-09 04:19:00,
2013-03-08 20:26:00,50.4,38.7,29.86,WSW,252,0.0,0.0,64,0.00,,CLR,0.00,VWS V13.01,2013-03-09 04:26:00,
2013-03-08 20:32:00,49.8,38.9,29.86,WSW,252,1.0,4.0,66,0.00,,CLR,0.00,VWS V13.01,2013-03-09 04:32:00,
2013-03-08 20:38:00,49.3,38.8,29.86,WSW,252,0.0,2.0,67,0.00,,CLR,0.00,VWS V13.01,2013-03-09 04:38:00,
2013-03-08 20:44:00,48.9,38.4,29.87,WSW,252,0.0,2.0,67,0.00,,CLR,0.00,VWS V13.01,2013-03-09 04:44:00,
2013-03-08 20:50:00,48.6,38.5,29.87,WSW,252,0.0,2.0,68,0.00,,CLR,0.00,VWS V13.01,2013-03-09 04:50:00,
2013-03-08 20:56:00,48.3,38.6,29.87,WSW,252,0.0,0.0,69,0.00,,CLR,0.00,VWS V13.01,2013-03-09 04:56:00,
2013-03-08 21:00:00,48.1,38.4,29.87,WSW,252,1.0,4.0,69,0.00,,CLR,0.00,VWS V13.01,2013-03-09 05:00:00,
2013-03-08 21:02:00,48.0,38.7,29.87,WSW,252,1.0,4.0,70,0.00,,CLR,0.00,VWS V13.01,2013-03-09 05:02:00,
2013-03-08 21:03:00,47.9,38.6,29.87,WSW,252,0.0,4.0,70,0.00,,CLR,0.00,VWS V13.01,2013-03-09 05:03:00,
2013-03-08 21:06:00,47.8,38.5,29.87,WSW,252,0.0,0.0,70,0.00,,CLR,0.00,VWS V13.01,2013-03-09 05:06:00,
2013-03-08 21:12:00,47.6,38.7,29.88,WSW,252,0.0,0.0,71,0.00,,CLR,0.00,VWS V13.01,2013-03-09 05:12:00,
2013-03-08 21:19:00,47.3,38.4,29.88,WSW,252,0.0,0.0,71,0.00,,CLR,0.00,VWS V13.01,2013-03-09 05:19:00,
2013-03-08 21:25:00,46.9,38.7,29.89,WSW,252,0.0,0.0,73,0.00,,CLR,0.00,VWS V13.01,2013-03-09 05:25:00,
2013-03-08 21:31:00,46.6,39.1,29.89,WSW,252,0.0,0.0,75,0.00,,CLR,0.00,VWS V13.01,2013-03-09 05:31:00,
2013-03-08 21:37:00,46.4,39.6,29.91,ENE,60,8.0,10.0,77,0.00,,CLR,0.00,VWS V13.01,2013-03-09 05:37:00,
2013-03-08 21:43:00,46.7,40.5,29.91,East,79,1.0,10.0,79,0.00,,CLR,0.00,VWS V13.01,2013-03-09 05:43:00,
2013-03-08 21:49:00,47.0,41.2,29.91,ESE,113,2.0,10.0,80,0.00,,CLR,0.00,VWS V13.01,2013-03-09 05:49:00,
2013-03-08 21:55:00,46.7,41.2,29.91,East,85,8.0,8.0,81,0.00,,CLR,0.00,VWS V13.01,2013-03-09 05:55:00,
2013-03-08 22:01:00,46.3,41.1,29.92,East,87,5.0,8.0,82,0.00,,CLR,0.00,VWS V13.01,2013-03-09 06:01:00,
2013-03-08 22:07:00,46.3,41.7,29.92,ENE,74,1.0,8.0,84,0.00,,CLR,0.00,VWS V13.01,2013-03-09 06:07:00,
2013-03-08 22:13:00,46.2,42.0,29.92,East,96,2.0,12.0,85,0.00,,CLR,0.00,VWS V13.01,2013-03-09 06:13:00,
2013-03-08 22:19:00,46.1,41.8,29.93,East,100,4.0,12.0,85,0.00,,CLR,0.00,VWS V13.01,2013-03-09 06:19:00,
2013-03-08 22:25:00,45.9,42.0,29.93,East,83,2.0,9.0,86,0.00,,CLR,0.00,VWS V13.01,2013-03-09 06:25:00,
2013-03-08 22:31:00,45.7,41.8,29.93,ESE,114,5.0,11.0,86,0.00,,CLR,0.00,VWS V13.01,2013-03-09 06:31:00,
2013-03-08 22:37:00,45.4,41.8,29.93,ESE,118,6.0,11.0,87,0.00,,CLR,0.00,VWS V13.01,2013-03-09 06:37:00,
2013-03-08 22:43:00,45.3,42.0,29.93,ESE,119,11.0,12.0,88,0.00,,CLR,0.00,VWS V13.01,2013-03-09 06:43:00,
2013-03-08 22:49:00,45.1,41.5,29.94,ESE,121,12.0,12.0,87,0.00,,CLR,0.00,VWS V13.01,2013-03-09 06:49:00,
2013-03-08 22:55:00,44.9,41.3,29.94,SE,125,11.0,11.0,87,0.00,,CLR,0.00,VWS V13.01,2013-03-09 06:55:00,
2013-03-08 23:02:00,44.8,41.5,29.94,SE,128,8.0,12.0,88,0.00,,CLR,0.00,VWS V13.01,2013-03-09 07:02:00,
2013-03-08 23:08:00,44.6,42.4,29.95,ESE,118,4.0,6.0,92,0.00,,CLR,0.00,VWS V13.01,2013-03-09 07:08:00,
2013-03-08 23:14:00,44.3,41.0,29.95,ESE,118,0.0,6.0,88,0.00,,CLR,0.00,VWS V13.01,2013-03-09 07:14:00,
2013-03-08 23:20:00,44.2,41.2,29.96,ESE,115,5.0,5.0,89,0.00,,CLR,0.00,VWS V13.01,2013-03-09 07:20:00,
2013-03-08 23:26:00,44.1,41.1,29.96,ESE,117,5.0,9.0,89,0.00,,CLR,0.00,VWS V13.01,2013-03-09 07:26:00,
2013-03-08 23:32:00,43.9,40.9,29.96,ESE,117,0.0,9.0,89,0.00,,CLR,0.00,VWS V13.01,2013-03-09 07:32:00,
2013-03-08 23:38:00,43.8,40.8,29.97,ESE,117,0.0,0.0,89,0.00,,CLR,0.00,VWS V13.01,2013-03-09 07:38:00,
2013-03-08 23:44:00,43.5,40.5,29.97,ESE,118,0.0,0.0,89,0.00,,CLR,0.00,VWS V13.01,2013-03-09 07:44:00,
2013-03-08 23:50:00,43.4,40.4,29.98,ESE,118,0.0,0.0,89,0.00,,CLR,0.00,VWS V13.01,2013-03-09 07:50:00,
2013-03-08 23:56:00,43.4,40.4,29.97,ESE,118,0.0,0.0,89,0.00,,CLR,0.00,VWS V13.01,2013-03-09 07:56:00,